Total_Precipitation_Accumulation
2.81 3.12 3.26 3.63 3.56 3.60 3.97 4.44 4.45 4.72 4.67 4.46 4.12 3.74 3.62 3.33 2.99 3.06 3.12 2.91 2.80 3.10 3.84 4.42 4.38 4.16 3.86 3.77 3.70 3.52 3.22 3.00 2.77 2.39 2.20 2.22 2.19 2.06 2.00 1.94 1.83 1.68 1.48
3.35 3.74 3.82 3.97 3.79 3.79 4.27 4.61 4.71 5.30 5.14 4.87 4.30 3.99 3.76 3.59 3.28 3.11 3.27 3.39 2.96 2.85 3.39 4.29 4.72 4.62 4.44 4.41 4.18 3.89 3.56 3.31 3.20 2.68 2.34 2.24 2.29 2.27 2.16 2.05 1.86 1.68 1.43
3.83 4.17 4.15 4.05 4.08 4.09 4.51 4.80 4.94 5.10 4.80 4.56 4.40 4.16 3.97 3.72 3.29 3.28 3.28 3.47 3.28 3.06 3.31 3.79 4.38 4.63 4.80 4.95 4.77 4.45 3.96 3.52 3.25 2.90 2.48 2.34 2.31 2.26 2.16 2.08 1.87 1.61 1.33
3.88 4.46 4.24 4.08 4.50 4.36 4.65 5.28 5.32 5.23 5.19 4.90 4.70 4.24 3.95 3.77 3.23 3.15 3.16 3.37 3.74 3.23 3.31 3.72 4.03 4.24 4.87 5.37 5.42 5.27 4.71 4.04 3.41 2.96 2.54 2.32 2.33 2.28 2.18 2.04 1.88 1.64 1.31
3.83 4.30 4.18 4.29 4.32 4.71 4.93 4.55 5.29 5.43 5.26 4.94 4.19 3.96 3.55 3.39 3.36 3.03 3.16 3.20 3.58 3.42 3.45 3.53 3.82 4.04 4.81 5.77 6.26 6.21 5.73 4.97 4.17 3.57 3.17 2.98 2.96 2.80 2.52 2.26 1.98 1.75 1.43
3.72 4.26 4.10 4.09 4.13 4.65 4.88 4.83 5.29 5.27 4.92 4.77 3.71 3.55 3.41 3.04 3.00 3.06 2.87 3.06 3.34 3.01 3.29 3.61 4.05 3.59 3.94 4.60 5.71 6.35 6.40 6.05 5.34 4.93 4.66 4.26 3.93 3.48 2.93 2.49 2.12 1.89 1.65
3.58 4.16 3.83 4.29 4.19 4.39 4.51 4.48 4.85 4.98 4.58 4.54 4.44 3.96 3.16 2.71 2.65 2.66 2.72 2.91 2.91 3.02 3.70 4.31 4.49 4.31 4.06 3.90 4.33 5.11 6.05 6.36 5.91 5.48 5.46 5.23 4.92 4.24 3.41 2.81 2.40 2.03 1.82
3.43 3.69 4.07 3.98 4.04 4.26 4.28 4.31 4.67 4.63 4.16 4.26 4.52 4.58 3.77 3.40 2.81 2.15 2.49 2.64 2.78 3.22 3.54 3.77 4.18 4.54 4.68 4.95 4.25 4.13 4.95 5.74 5.97 5.70 5.43 5.50 5.33 4.48 3.75 3.42 2.98 2.49 2.21
3.21 3.42 3.74 3.80 3.88 3.73 3.97 4.21 4.18 4.23 4.17 4.08 4.10 4.60 4.26 3.79 3.13 2.47 2.28 2.41 2.81 3.17 3.26 3.51 3.54 3.88 4.20 4.90 4.94 4.35 4.17 4.41 5.04 5.73 5.68 5.34 5.08 4.42 3.91 3.78 3.61 3.16 2.88
2.99 3.18 3.35 3.37 3.43 3.39 3.70 3.41 3.56 3.94 4.20 4.04 3.89 3.77 3.84 3.99 3.83 3.10 2.54 2.40 2.71 2.91 2.91 2.88 3.18 3.64 3.75 4.08 4.42 4.27 3.87 3.53 3.78 4.57 5.20 5.25 4.94 4.39 4.11 4.17 4.38 4.13 3.57
2.85 2.80 3.01 3.13 3.11 3.04 3.18 3.24 3.62 3.59 3.78 3.81 3.80 3.75 3.83 3.85 3.65 3.47 3.07 2.88 2.79 2.50 2.48 2.66 2.99 3.33 3.49 3.72 4.07 4.01 3.98 3.42 3.35 3.52 3.96 4.47 4.71 4.63 4.35 4.45 4.97 5.06 4.60
2.79 2.71 2.77 2.96 2.87 2.86 3.02 3.17 3.29 3.30 3.43 3.55 3.53 3.56 3.85 3.74 3.62 3.71 3.27 3.06 2.93 2.55 2.49 2.59 2.76 3.09 3.26 3.43 3.27 3.58 3.55 3.14 3.02 2.94 2.95 3.26 3.70 4.06 4.22 4.49 5.11 5.47 5.35
2.32 2.49 2.64 2.76 2.73 2.75 2.81 3.01 3.12 3.23 3.38 3.44 3.34 3.37 3.44 3.45 3.59 3.73 3.75 3.30 3.02 2.60 2.64 2.55 2.52 2.83 2.97 3.29 3.22 3.14 2.81 2.62 2.44 2.33 2.41 2.53 2.69 2.99 3.27 3.71 4.40 4.98 5.23
2.02 2.13 2.26 2.31 2.42 2.56 2.59 3.04 3.08 3.19 3.31 3.23 3.04 3.47 3.33 3.02 3.28 3.50 3.78 3.97 3.56 3.02 2.96 2.78 2.52 2.51 2.69 2.83 2.92 2.75 2.29 2.23 2.00 1.93 1.93 1.96 2.02 2.14 2.36 2.62 3.01 3.40 3.84
2.15 2.21 2.22 2.25 2.38 2.62 2.84 3.14 3.13 3.18 3.33 3.20 3.21 3.38 3.17 2.92 2.96 3.06 3.56 4.02 4.14 3.61 3.27 3.11 2.93 2.57 2.48 2.47 2.66 2.41 2.36 2.24 1.92 1.81 1.74 1.63 1.61 1.70 1.88 2.03 2.14 2.31 2.49
2.36 2.36 2.38 2.42 2.38 2.50 2.76 3.01 3.02 3.06 3.21 3.20 3.25 3.42 3.35 3.05 3.08 3.10 3.46 3.89 4.13 4.20 3.60 3.14 3.08 2.72 2.47 2.23 2.49 2.33 2.25 2.26 1.95 1.76 1.69 1.59 1.51 1.47 1.48 1.55 1.62 1.69 1.82
2.24 2.19 2.18 2.22 2.25 2.38 2.63 2.73 2.65 2.74 2.76 2.93 2.87 3.01 3.15 3.35 3.31 3.30 3.50 3.69 3.93 4.24 3.73 3.31 3.37 3.18 2.91 2.60 2.45 2.40 2.18 2.09 1.96 1.84 1.63 1.57 1.50 1.41 1.38 1.40 1.42 1.49 1.58
1.93 1.84 1.92 2.02 2.05 2.17 2.35 2.31 2.27 2.40 2.53 2.73 2.90 3.05 2.91 3.09 3.18 3.19 3.34 3.53 3.78 4.08 3.89 3.66 3.73 3.66 3.41 3.03 2.85 2.71 2.31 2.10 2.00 2.00 1.74 1.58 1.50 1.45 1.37 1.38 1.39 1.40 1.44
1.66 1.67 1.79 1.90 1.98 2.09 2.05 1.99 2.09 2.16 2.30 2.51 2.71 2.72 2.64 2.85 2.84 3.00 3.09 3.22 3.45 3.71 3.84 3.68 3.67 3.75 3.48 3.24 3.12 2.72 2.45 2.45 2.09 2.13 2.08 1.78 1.58 1.49 1.46 1.42 1.38 1.42 1.43
1.67 1.71 1.84 1.98 1.96 1.94 1.91 2.04 2.16 2.22 2.30 2.30 2.28 2.26 2.26 2.38 2.56 2.90 2.97 3.03 3.17 3.40 3.53 3.56 3.59 3.59 3.43 3.38 3.41 3.02 2.81 2.69 2.41 2.07 2.11 1.87 1.76 1.66 1.56 1.47 1.45 1.47 1.55
1.67 1.75 1.93 2.00 2.00 1.91 1.76 2.00 2.18 2.13 2.20 2.17 2.08 1.94 1.86 1.98 2.16 2.39 2.29 2.55 2.81 2.97 3.06 3.22 3.34 3.50 3.34 3.44 3.29 3.19 3.02 2.91 2.79 2.46 2.37 2.02 1.87 1.74 1.60 1.52 1.48 1.50 1.60
1.78 1.81 1.79 1.83 1.74 1.45 1.60 1.86 1.99 2.03 2.16 2.19 2.08 1.95 1.81 1.80 1.86 1.92 1.93 2.03 2.29 2.50 2.66 2.93 3.09 3.25 3.11 3.12 3.34 3.33 3.24 3.06 2.90 2.72 2.87 2.69 2.40 2.22 1.89 1.56 1.51 1.49 1.52
1.82 1.80 1.72 1.73 1.70 1.64 1.74 1.77 1.78 1.89 2.08 2.13 2.17 2.16 1.82 1.51 1.69 1.67 1.76 1.78 1.83 1.98 2.22 2.58 2.74 2.76 2.96 3.03 3.38 3.40 3.52 3.38 3.17 3.05 3.25 3.19 2.98 2.77 2.08 1.86 1.84 1.57 1.44
1.78 1.78 1.77 1.78 1.86 1.82 1.85 1.71 1.75 1.73 1.88 1.99 2.03 2.01 1.95 1.84 1.76 1.75 1.75 1.70 1.54 1.60 1.79 1.84 2.00 2.29 2.83 3.21 3.30 3.33 3.65 3.63 3.39 3.23 3.31 3.34 3.06 2.95 2.39 1.97 1.80 1.52 1.36
1.75 1.71 1.71 1.73 1.77 1.88 1.97 1.86 1.83 1.75 1.87 1.88 1.85 1.77 1.74 1.74 1.80 1.67 1.71 1.70 1.57 1.50 1.56 1.68 1.76 1.98 2.31 2.71 2.98 3.07 3.18 3.35 3.33 3.26 3.32 3.43 3.30 3.22 3.12 2.72 2.10 1.77 1.45
1.97 1.93 1.85 1.84 1.83 1.89 1.88 1.68 1.64 1.56 1.66 1.71 1.75 1.61 1.50 1.44 1.51 1.50 1.60 1.74 1.62 1.54 1.60 1.60 1.58 1.68 1.85 2.07 2.23 2.23 2.44 2.68 2.77 2.91 2.88 3.20 3.44 3.60 3.75 3.52 2.88 2.30 1.91